Andrews AFB, MD

6:45 AM EDT on April 24, 2017 (GMT -0400)
Andrews Air Force Base-Naf

Weather History for KADW - December, 2013

Change the Weather History Date:

Sunday, December 1, 2013

  Actual Average Record
Temperature  
Mean Temperature 36 °F -  
Max Temperature 49 °F 51 °F 73 °F (2001)
Min Temperature 23 °F 31 °F 21 °F (1999)
Degree Days  
Heating Degree Days 29    
Moisture  
Dew Point 27 °F    
Average Humidity 71    
Maximum Humidity 90    
Minimum Humidity 44    
Precipitation  
Precipitation 0.00 in - - ()
Sea Level Pressure  
Sea Level Pressure 30.20 in    
Wind  
Wind Speed 1 mph (SSW)    
Max Wind Speed 6 mph    
Max Gust Speed -    
Visibility 10 miles    
Events      
Averages and records for this station are not official NWS values.
T = Trace of Precipitation, MM = Missing Value Source: NWS Daily Summary

Daily Weather History Graph

Daily Weather History Graph

Search for Another Location

Airport or City:

Trip Planner

Search our weather history database for the weather conditions in past years. The results will help you decide how hot, cold, wet, or windy it might be!

Date:

Astronomy

Dec. 01, 2013 Rise Set
Actual Time 7:07 AM EST 4:46 PM EST
Civil Twilight 6:37 AM EST 5:15 PM EST
Nautical Twilight 6:04 AM EST 5:48 PM EST
Astronomical Twilight 5:32 AM EST 6:20 PM EST
Moon 5:23 AM EST (12/1) 3:53 PM EST (12/1)
Length of Visible Light 10h 37m
Length of Day
9h 38m
Waning Crescent, 2% of the Moon is Illuminated
Dec 1
Waning Crescent
Dec 2
New
Dec 9
First Quarter
Dec 17
Full
Dec 25
Last Quarter

Hourly Weather History & Observations

Time (EST) Temp. Windchill Dew Point Humidity Pressure Visibility Wind Dir Wind Speed Gust Speed Precip Events Conditions
12:58 AM 27.3 °F - 21.2 °F 78% 30.38 in 10.0 mi Calm Calm - N/A   Scattered Clouds
1:58 AM 25.7 °F - 21.6 °F 84% 30.35 in 10.0 mi Calm Calm - N/A   Clear
2:58 AM 25.0 °F - 21.9 °F 88% 30.33 in 10.0 mi NNW 2.3 mph - N/A   Clear
3:58 AM 25.3 °F - 22.1 °F 87% 30.31 in 10.0 mi Calm Calm - N/A   Clear
4:58 AM 25.0 °F - 22.5 °F 90% 30.30 in 10.0 mi NNW 2.3 mph - N/A   Clear
5:58 AM 25.0 °F - 20.7 °F 84% 30.28 in 10.0 mi Calm Calm - N/A   Clear
6:58 AM 23.2 °F - 20.1 °F 88% 30.28 in 10.0 mi Calm Calm - N/A   Clear
7:58 AM 25.7 °F - 23.2 °F 90% 30.28 in 10.0 mi South 1.2 mph - N/A   Clear
8:58 AM 32.7 °F - 28.2 °F 83% 30.27 in 10.0 mi Calm Calm - N/A   Clear
9:58 AM 40.3 °F 36.3 °F 27.5 °F 60% 30.26 in 10.0 mi SSW 5.8 mph - N/A   Clear
10:58 AM 42.8 °F 41.1 °F 26.8 °F 53% 30.24 in 10.0 mi SSW 3.5 mph - N/A   Clear
11:58 AM 45.0 °F 42.6 °F 27.9 °F 51% 30.20 in 10.0 mi South 4.6 mph - N/A   Clear
12:58 PM 46.0 °F - 28.0 °F 50% 30.17 in 10.0 mi Variable 1.2 mph - N/A   Partly Cloudy
1:59 PM 46.4 °F 44.3 °F 28.0 °F 49% 30.14 in 10.0 mi SW 4.6 mph - N/A   Clear
2:58 PM 49.6 °F - 28.4 °F 44% 30.12 in 10.0 mi SW 2.3 mph - N/A   Clear
3:58 PM 48.0 °F - 28.9 °F 48% 30.12 in 10.0 mi North 2.3 mph - N/A   Clear
4:58 PM 44.1 °F - 29.3 °F 56% 30.11 in 10.0 mi South 1.2 mph - N/A   Overcast
5:58 PM 39.9 °F - 29.8 °F 67% 30.11 in 10.0 mi South 2.3 mph - N/A   Overcast
6:58 PM 39.7 °F 35.6 °F 32.2 °F 74% 30.10 in 10.0 mi ESE 5.8 mph - N/A   Scattered Clouds
7:59 PM 37.9 °F - 31.5 °F 77% 30.09 in 10.0 mi South 2.3 mph - N/A   Mostly Cloudy
8:59 PM 37.4 °F 34.9 °F 32.2 °F 81% 30.08 in 10.0 mi South 3.5 mph - N/A   Overcast
9:58 PM 38.8 °F - 31.6 °F 75% 30.07 in 10.0 mi Calm Calm - N/A   Overcast
10:58 PM 39.4 °F - 32.2 °F 75% 30.07 in 10.0 mi Calm Calm - N/A   Overcast
11:58 PM 39.7 °F - 32.4 °F 75% 30.05 in 10.0 mi SE 1.2 mph - N/A   Overcast